Terug naar catalogus

STARLINK-34666

ActiefCommunicatieVLEO
NORAD 64794·PAYLOAD·🇺🇸 United States

Gelanceerd Jul 16, 2025 vanaf Vandenberg Space Force Base

Loading…

Volgende Passages (komende 24 uur)

TLE

VersSource: CelesTrak SupGP

Epoch: Sep 15, 2026, 02:36 UTC

1 64794C 25150E   26258.10881944  .00028480  00000+0  23867-2 0  2588
2 64794  70.0030  17.0490 0003062 266.3822 153.9866 14.98317014    10

Volg STARLINK-34666 in realtime met AllMySat

Download on the App Store